Regional Weather Roundup
Issued by NWS

Home | Current Version | Previous Version | Text Only | Print | Product List | Glossary On
Versions: 1 2 3 4 5 6 7 8 9 10 11 12 13 14 15 16 17 18 19 20 21 22 23 24 25 26 27 28 29 30 31 32 33 34 35 36 37 38 39 40 41 42 43 44 45 46 47 48 49 50
000
ASUS43 KOAX 290510
RWRNE

WEATHER ROUNDUP FOR NEBRASKA
NATIONAL WEATHER SERVICE OMAHA NE
1200 AM CDT THU JUN 29 2017

NOTES: SATELLITE DATA IS BEING USED TO AUGMENT CLOUD COVER ABOVE
       12000 FEET.
       "FAIR" INDICATES FEW OR NO CLOUDS BELOW 12,000 FEET WITH NO
       SIGNIFICANT WEATHER AND/OR OBSTRUCTIONS TO VISIBILITY.

  * THESE STATIONS DO NOT REPORT WEATHER SUCH AS RAIN...SNOW OR FOG.

NEZ001>004-019>022-054>056-290600-
NEBRASKA PANHANDLE

CITY           SKY/WX    TMP DP  RH WIND       PRES   REMARKS
SCOTTSBLUFF    CLOUDY    70  51  51 N6        29.83R
ALLIANCE       CLOUDY    69  48  47 E5        29.86R
CHADRON        CLOUDY    62  55  77 CALM      29.80R
GORDON         FAIR      61  54  76 S12G21    29.79F
KIMBALL        RAIN      67  48  50 W8        29.97R
SIDNEY         CLEAR     62  51  67 CALM      29.88R
$$

NEZ057>060-069>072-079>082-290600-
SOUTHWEST NEBRASKA

CITY           SKY/WX    TMP DP  RH WIND       PRES   REMARKS
NORTH PLATTE   LGT RAIN  67  57  70 NE13      29.80F
IMPERIAL       MOCLDY    70  50  49 NE25      29.80F
LEXINGTON      CLOUDY    73  65  78 N12       29.79R
MCCOOK         MOCLDY    76  57  51 CALM      29.77R
OGALLALA       CLEAR     64  56  73 E12       29.80S
$$

NEZ005>010-023>029-035>040-094-290600-
NORTH CENTRAL NEBRASKA

CITY           SKY/WX    TMP DP  RH WIND       PRES   REMARKS
VALENTINE      CLOUDY    71  47  42 N9        29.80R
AINSWORTH      CLOUDY    66  57  73 S6        29.78S
BROKEN BOW     CLOUDY    72  58  61 N6        29.85R
O`NEILL        PTCLDY    69  58  68 NE6       29.74F
ORD            CLOUDY    65  60  84 NW5       29.76R
THEDFORD       CLOUDY    76  47  36 SE5       29.77F
$$

NEZ041-046>049-061>064-073>077-083>087-290600-
SOUTH CENTRAL NEBRASKA

CITY           SKY/WX    TMP DP  RH WIND       PRES   REMARKS
GRAND ISLAND   CLOUDY    75  68  78 NW3       29.73R
AURORA         PTCLDY    72  66  83 W5        29.73R
HASTINGS       MOCLDY    71  60  68 SE3       29.74F
HEBRON         CLOUDY    75  65  70 S17G29    29.76R
HOLDREGE       PTCLDY    72  61  67 NE3       29.72S
KEARNEY *      MOCLDY    73  63  68 NE9       29.72F
YORK           CLEAR     72  66  83 CALM      29.73R
$$

NEZ011>018-030>034-042>045-290600-
NORTHEAST NEBRASKA

CITY           SKY/WX    TMP DP  RH WIND       PRES   REMARKS
NORFOLK        PTCLDY    66  63  90 SW3       29.72R
ALBION         MOCLDY    69  64  85 CALM      29.74R
BLAIR          CLEAR     76  65  69 CALM      29.69F
FREMONT        CLEAR     72  67  82 CALM      29.70S
TEKAMAH        PTCLDY    70  64  81 CALM      29.68S
WAYNE          PTCLDY    66  66  98 CALM      29.71S
$$

NEZ050>053-065>068-078-088>093-290600-
SOUTHEAST NEBRASKA

CITY           SKY/WX    TMP DP  RH WIND       PRES   REMARKS
LINCOLN        CLEAR     70  66  87 S8        29.69F
OMAHA EPPLEY   PTCLDY    76  63  64 N5        29.68S
BEATRICE       CLOUDY    81  70  69 CALM      29.73S
FALLS CITY     CLOUDY    79  69  71 S3        29.73R
NEBRASKA CITY  CLOUDY    78  72  80 SW6       29.72S
PLATTSMOUTH    CLEAR     73  67  80 S5        29.70F
$$

NEZ044-045-051>053-067-290600-
OMAHA AREA

CITY           SKY/WX    TMP DP  RH WIND       PRES   REMARKS
OMAHA EPPLEY   PTCLDY    76  63  64 N5        29.68S
BLAIR          CLEAR     76  65  69 CALM      29.69F
FREMONT        CLEAR     72  67  82 CALM      29.70S
MILLARD        CLEAR     72  67  82 SE6       29.68F
OFFUTT AFB     CLEAR     70  67  90 SE6       29.68S
PLATTSMOUTH    CLEAR     73  67  80 S5        29.70F
WAHOO          FAIR      74  64  70 W3        29.69S
$$




USA.gov is the U.S. government's official web portal to all federal, state and local government web resources and services.